| time (UTC) | temp F | wind direction | speed MPH | gust MPH | rain 1hr in | rain 24hr in | rain mn in | humidity % | barometer mb |
| 20260504081525 | 64 | 125 | 4.0 | 16.0 | 0.00 | 0.08 | 0.06 | 52 | 1017.7 |
| 20260504044546 | 57 | 337 | 1.0 | 6.0 | 0.00 | 0.07 | 0.04 | 65 | 1016.3 |
| 20260504043044 | 57 | 124 | 2.0 | 7.0 | 0.00 | 0.07 | 0.04 | 64 | 1016.2 |
| 20260504041545 | 57 | 19 | 2.0 | 6.0 | 0.00 | 0.07 | 0.04 | 65 | 1016.1 |
| 20260504040041 | 57 | 309 | 2.0 | 7.0 | 0.00 | 0.07 | 0.04 | 67 | 1015.8 |
| 20260504034541 | 57 | 338 | 2.0 | 6.0 | 0.00 | 0.07 | 0.04 | 68 | 1015.7 |
| 20260504033035 | 57 | 278 | 1.0 | 8.0 | 0.00 | 0.07 | 0.04 | 67 | 1015.6 |
| 20260504031536 | 56 | 327 | 1.0 | 7.0 | 0.00 | 0.07 | 0.04 | 67 | 1015.5 |
| 20260504030041 | 56 | 11 | 0.0 | 4.0 | 0.00 | 0.07 | 0.04 | 66 | 1015.4 |
| 20260504024534 | 56 | 44 | 2.0 | 7.0 | 0.00 | 0.08 | 0.04 | 66 | 1015.4 |
| 20260504023033 | 56 | 355 | 1.0 | 12.0 | 0.00 | 0.08 | 0.04 | 65 | 1015.3 |
| 20260504021535 | 56 | 91 | 2.0 | 0.0 | 0.00 | 0.00 | 0.04 | 66 | 1015.4 |
| 20260504020036 | 56 | 354 | 1.0 | 9.0 | 0.00 | 0.08 | 0.04 | 65 | 1015.3 |
| 20260504014536 | 56 | 13 | 2.0 | 10.0 | 0.00 | 0.09 | 0.04 | 64 | 1015.3 |
| 20260504013033 | 56 | 349 | 3.0 | 8.0 | 0.00 | 0.09 | 0.04 | 64 | 1015.5 |
| 20260504011529 | 56 | 343 | 0.0 | 11.0 | 0.00 | 0.09 | 0.04 | 65 | 1015.4 |
| 20260504010029 | 57 | 294 | 1.0 | 12.0 | 0.00 | 0.09 | 0.04 | 64 | 1015.4 |
| 20260504004529 | 57 | 117 | 2.0 | 11.0 | 0.00 | 0.09 | 0.04 | 64 | 1015.3 |
| 20260504003025 | 57 | 283 | 3.0 | 10.0 | 0.00 | 0.09 | 0.04 | 65 | 1015.1 |
| 20260504001525 | 56 | 329 | 0.0 | 10.0 | 0.00 | 0.09 | 0.04 | 67 | 1015.1 |
| 20260504000022 | 56 | 248 | 1.0 | 9.0 | 0.00 | 0.09 | 0.04 | 65 | 1015.2 |
| 20260503234535 | 56 | 342 | 1.0 | 9.0 | 0.00 | 0.09 | 0.04 | 65 | 1015.1 |
| 20260503233021 | 56 | 283 | 1.0 | 12.0 | 0.00 | 0.09 | 0.04 | 66 | 1015.2 |
| 20260503231519 | 56 | 161 | 2.0 | 12.0 | 0.00 | 0.09 | 0.04 | 67 | 1015.2 |
| 20260503230022 | 56 | 318 | 1.0 | 10.0 | 0.00 | 0.09 | 0.04 | 67 | 1015.3 |
| 20260503224517 | 56 | 308 | 1.0 | 8.0 | 0.00 | 0.10 | 0.04 | 68 | 1015.3 |
| 20260503223017 | 55 | 259 | 3.0 | 10.0 | 0.00 | 0.10 | 0.04 | 69 | 1015.2 |
| 20260503221519 | 55 | 280 | 3.0 | 10.0 | 0.00 | 0.10 | 0.04 | 72 | 1015.3 |
| 20260503220035 | 54 | 39 | 1.0 | 6.0 | 0.04 | 0.10 | 0.04 | 75 | 1015.4 |
| 20260503214514 | 53 | 16 | 1.0 | 7.0 | 0.04 | 0.15 | 0.04 | 79 | 1015.4 |
| 20260503213014 | 53 | 267 | 1.0 | 13.0 | 0.05 | 0.15 | 0.04 | 80 | 1015.3 |
| 20260503211510 | 53 | 321 | 1.0 | 18.0 | 0.05 | 0.15 | 0.04 | 76 | 1015.3 |
| 20260503210007 | 56 | 136 | 0.0 | 9.0 | 0.01 | 0.11 | 0.11 | 68 | 1015.2 |
| 20260503204506 | 56 | 96 | 1.0 | 12.0 | 0.01 | 0.11 | 0.11 | 70 | 1015.0 |
| 20260503203010 | 57 | 302 | 4.0 | 13.0 | 0.00 | 0.10 | 0.10 | 64 | 1014.9 |
| 20260503201503 | 57 | 68 | 4.0 | 11.0 | 0.00 | 0.10 | 0.10 | 65 | 1014.8 |
| 20260503200002 | 56 | 246 | 2.0 | 11.0 | 0.00 | 0.10 | 0.10 | 65 | 1014.7 |
| 20260503194502 | 56 | 177 | 2.0 | 10.0 | 0.00 | 0.10 | 0.10 | 64 | 1014.6 |
| 20260503193000 | 56 | 321 | 2.0 | 11.0 | 0.00 | 0.10 | 0.10 | 64 | 1014.7 |
| 20260503191609 | 56 | 251 | 4.0 | 11.0 | 0.00 | 0.10 | 0.10 | 62 | 1014.8 |
| 20260503190100 | 56 | 282 | 3.0 | 15.0 | 0.00 | 0.10 | 0.10 | 63 | 1014.7 |
| 20260503184610 | 56 | 269 | 2.0 | 11.0 | 0.00 | 0.10 | 0.10 | 60 | 1014.5 |
| 20260503183109 | 56 | 63 | 1.0 | 16.0 | 0.00 | 0.10 | 0.10 | 60 | 1014.5 |
| 20260503181609 | 56 | 290 | 3.0 | 14.0 | 0.00 | 0.10 | 0.10 | 61 | 1014.5 |
| 20260503180056 | 55 | 256 | 0.0 | 6.0 | 0.00 | 0.10 | 0.10 | 68 | 1014.4 |
| 20260503174555 | 55 | 275 | 0.0 | 11.0 | 0.00 | 0.10 | 0.10 | 67 | 1014.4 |
| 20260503173100 | 54 | 92 | 0.0 | 6.0 | 0.00 | 0.10 | 0.10 | 68 | 1014.4 |
| 20260503171553 | 54 | 335 | 0.0 | 15.0 | 0.01 | 0.10 | 0.10 | 71 | 1014.4 |